User: anonymous   Login
Location: Unspecified
(0.0000°N, 0.0000°E)
Time: 19:16:57
(UTC+00:00)
Language:

SAR-Lupe-2 - Orbit

View from above orbital plane
View from above orbital plane
View from above satellite
View from above satellite

Ground track
Ground track

The orbit data is extracted from the following two-line orbital elements,

1 31797U 07030A   18136.03593135 0.00001400  00000-0  51875-4 0    03
2 31797  98.1646 281.7519 0002540  75.7237 284.2762 15.27665405    00
Epoch (UTC): 16 May 2018 00:51:44
Eccentricity: 0.0002540
inclination: 98.1646°
perigee height: 481 km
apogee height: 484 km
right ascension of ascending node: 281.7519°
argument of perigee: 75.7237°
revolutions per day: 15.27665405
mean anomaly at epoch: 284.2762°
orbit number at epoch: 0

The dashed part of the orbit path shows where the satellite is in the earth's shadow,  

DLR